Estación de Casa Rosada

Ultimos registro cada 15 minutos 22
Estación Fecha / Hora Temperatura Humedad Lluvia Velocidad Dirección Radiación Presion
22 Casa Rosada 09-05-2026 05:15 7,3 61 0 0,4 150 0 1012,6
21 Casa Rosada 09-05-2026 05:00 7,2 61 0 0,4 167 0 1012,6
20 Casa Rosada 09-05-2026 04:45 7,1 62 0 0,9 172 0 1012,7
19 Casa Rosada 09-05-2026 04:30 7,2 62 0 0,9 167 0 1012,7
18 Casa Rosada 09-05-2026 04:15 7,8 60 0 0,4 186 0 1012,8
17 Casa Rosada 09-05-2026 04:00 8 60 0 0,4 158 0 1012,9
16 Casa Rosada 09-05-2026 03:45 7,7 61 0 0,9 162 0 1012,8
15 Casa Rosada 09-05-2026 03:30 7,7 61 0 1,3 167 0 1012,7
14 Casa Rosada 09-05-2026 03:15 7,7 61 0 0,9 167 0 1012,6
13 Casa Rosada 09-05-2026 03:00 8,1 60 0 1,3 181 0 1012,5
12 Casa Rosada 09-05-2026 02:45 7,7 62 0 1,3 208 0 1012,7
11 Casa Rosada 09-05-2026 02:30 7,7 62 0 0,9 177 0 1012,7
10 Casa Rosada 09-05-2026 02:15 7,7 62 0 0,9 154 0 1012,8
9 Casa Rosada 09-05-2026 02:00 8,1 61 0 0,9 167 0 1012,8
8 Casa Rosada 09-05-2026 01:45 8,2 60 0 0 167 0 1012,9
7 Casa Rosada 09-05-2026 01:30 8,4 60 0 0,4 167 0 1012,9
6 Casa Rosada 09-05-2026 01:15 8,5 61 0 0,4 177 0 1012,8
5 Casa Rosada 09-05-2026 01:00 8,3 61 0 0,4 160 0 1012,8
4 Casa Rosada 09-05-2026 00:45 8,4 61 0 0,9 167 0 1012,6
3 Casa Rosada 09-05-2026 00:30 8,2 62 0 0,4 167 0 1012,6
2 Casa Rosada 09-05-2026 00:15 8,2 63 0 0,4 177 0 1012,5
1 Casa Rosada 09-05-2026 00:00 8,8 61 0 0 181 0 1012,3